To NAV CANADA Home Page Login to a new session Search on AWWS site Feedback and Comments Disclaimer Vers la page française équivalente Tips FAQ What's new on the site To the Forecasts and Observations / NOTAM section To "File a Flight Plan" website Publications and other links Update of the User's profile FIC Telephone Numbers My Weather Data Folder Route Weather Data Regional Weather Data Local Weather Data To the Forecasts and Observations / NOTAM section
Request Generated 08/27/2016 at 16:46:44 UTC . Weather information available at that time is displayed.

METAR/TAF

SALLUIT/QC    

LWIS CYZG 271600Z AUTO 22014KT 09/06 A2996=
LWIS CYZG 271500Z AUTO 20013KT 08/05 A2995=
LWIS CYZG 271400Z AUTO 23012KT 08/05 A2994=

CYZG - No TAF is issued for this station

Your time UTC time
Weather data provided by Environment Canada and NAV CANADA